Overview Statistics Trail Chart Weather Telemetry Raw packets
 

This is the latest recevied weather packets stored in our database for station/object SQ1OHF-10. If no packets are shown the sender has not sent any weather packets the latest 10 day(s).

<< 1 2 3 4 >>
Time Temp. Humidity Pressure Rain* Wind** Luminosity Snow
1788128156 24.44° C 54% 1007.7 hPa - - - -
1788124559 23.89° C 54% 1007.3 hPa - - - -
1788120961 23.89° C 53% 1007.3 hPa - - - -
1788117365 24.44° C 52% 1007 hPa - - - -
1788113768 23.89° C 51% 1006.4 hPa - - - -
1788110171 23.89° C 52% 1005.8 hPa - - - -
1788106575 23.89° C 50% 1005.2 hPa - - - -
1788102979 24.44° C 50% 1004.8 hPa - - - -
1788099383 23.89° C 52% 1004.6 hPa - - - -
1788095788 23.89° C 55% 1004.2 hPa - - - -
1788092461 23.33° C 55% 1004.3 hPa - - - -
1788016897 23.89° C 64% 1006.1 hPa - - - -
1788013300 24.44° C 56% 1005.9 hPa - - - -
1788009703 23.89° C 54% 1006 hPa - - - -
1788006106 23.89° C 56% 1006 hPa - - - -
1788002509 24.44° C 56% 1006.2 hPa - - - -
1787998914 24.44° C 55% 1006.4 hPa - - - -
1787995317 23.89° C 53% 1006.4 hPa - - - -
1787991720 23.89° C 53% 1006.1 hPa - - - -
1787988125 23.89° C 54% 1005.8 hPa - - - -
1787984529 23.33° C 54% 1005.7 hPa - - - -
1787980933 23.33° C 54% 1005.6 hPa - - - -
1787977336 23.33° C 54% 1004.8 hPa - - - -
1787973740 23.33° C 55% 1005.1 hPa - - - -
1787970144 23.33° C 55% 1004.9 hPa - - - -

* Rain since midnight (hover to see other rain measurements)
** Current wind speed in m/s (hover to see current wind gust speed)